When you browse on this site, cookies collect data to enhance your experience and personalize the content and advertising you see.
Visit our Privacy Policy to learn more. By continuing to use the site, you agree to this use of cookies and data.
  • In Romania
  • List of Countries
  • For 7 days
  • Water Temperature
  • Satellite Maps
  • Weather Map
  • Weather Widgets
  • user-avatar
    Login

    Hourly Weather Arroyo

    Today, 16 July, Tuesday

    Time Temperature Precipitation Wind Pressure Humidity
    00:00 +24°C° 0 mm 1 mps 693 mmHg 42%
    01:00 +24°C° 0 mm 1 mps 693 mmHg 46%
    02:00 +23°C° 0 mm 1 mps 693 mmHg 50%
    03:00 +22°C° 0 mm 1 mps 692 mmHg 54%
    04:00 +23°C° 0 mm 1 mps 693 mmHg 54%
    05:00 +23°C° 0 mm 1 mps 693 mmHg 55%
    06:00 +22°C° 0 mm 0 mps 694 mmHg 53%
    07:00 +27°C° 0 mm 1 mps 694 mmHg 46%
    08:00 +29°C° 0 mm 1 mps 694 mmHg 39%
    09:00 +32°C° 0 mm 2 mps 695 mmHg 32%
    10:00 +35°C° 0 mm 3 mps 695 mmHg 27%
    11:00 +36°C° 0 mm 3 mps 695 mmHg 21%
    12:00 +38°C° 0 mm 4 mps 695 mmHg 16%
    13:00 +40°C° 0 mm 4 mps 695 mmHg 15%
    14:00 +40°C° 0 mm 4 mps 695 mmHg 14%
    15:00 +41°C° 0 mm 4 mps 695 mmHg 13%
    16:00 +40°C° 0 mm 5 mps 694 mmHg 15%
    17:00 +37°C° 0 mm 5 mps 694 mmHg 18%
    18:00 +36°C° 0 mm 5 mps 694 mmHg 20%
    19:00 +33°C° 0 mm 4 mps 694 mmHg 26%
    20:00 +29°C° 0 mm 3 mps 694 mmHg 31%
    21:00 +26°C° 0 mm 2 mps 694 mmHg 37%
    22:00 +25°C° 0 mm 2 mps 694 mmHg 39%
    23:00 +23°C° 0 mm 1 mps 693 mmHg 42%

    Tomorrow, 17 July, Wednesday

    Time Temperature Precipitation Wind Pressure Humidity
    00:00 +22°C° 0 mm 1 mps 693 mmHg 44%
    01:00 +21°C° 0 mm 1 mps 693 mmHg 46%
    02:00 +21°C° 0 mm 1 mps 693 mmHg 49%
    03:00 +20°C° 0 mm 1 mps 692 mmHg 51%
    04:00 +20°C° 0 mm 1 mps 693 mmHg 52%
    05:00 +18°C° 0 mm 0 mps 693 mmHg 52%
    06:00 +19°C° 0 mm 0 mps 693 mmHg 53%
    07:00 +23°C° 0 mm 1 mps 693 mmHg 46%
    08:00 +26°C° 0 mm 1 mps 694 mmHg 39%
    09:00 +29°C° 0 mm 2 mps 694 mmHg 33%
    10:00 +31°C° 0 mm 2 mps 695 mmHg 28%
    11:00 +34°C° 0 mm 3 mps 695 mmHg 24%
    12:00 +36°C° 0 mm 3 mps 695 mmHg 20%
    13:00 +36°C° 0 mm 4 mps 694 mmHg 19%
    14:00 +36°C° 0 mm 4 mps 694 mmHg 18%
    15:00 +36°C° 0 mm 4 mps 694 mmHg 17%
    16:00 +35°C° 0.1 mm 4 mps 693 mmHg 19%
    17:00 +35°C° 0.1 mm 5 mps 693 mmHg 20%
    18:00 +34°C° 0.1 mm 5 mps 693 mmHg 22%
    19:00 +30°C° 0 mm 4 mps 693 mmHg 27%
    20:00 +27°C° 0 mm 3 mps 693 mmHg 33%
    21:00 +24°C° 0 mm 2 mps 693 mmHg 39%
    22:00 +23°C° 0 mm 2 mps 693 mmHg 40%
    23:00 +21°C° 0 mm 2 mps 693 mmHg 41%

    Day after tomorrow, 18 July, Thursday

    Time Temperature Precipitation Wind Pressure Humidity
    00:00 +20°C° 0 mm 2 mps 692 mmHg 41%
    01:00 +19°C° 0 mm 2 mps 692 mmHg 50%
    02:00 +19°C° 0 mm 1 mps 692 mmHg 59%
    03:00 +18°C° 0 mm 1 mps 691 mmHg 67%
    04:00 +19°C° 0 mm 1 mps 692 mmHg 68%
    05:00 +19°C° 0 mm 1 mps 692 mmHg 68%
    06:00 +19°C° 0 mm 1 mps 692 mmHg 68%
    07:00 +22°C° 0 mm 1 mps 693 mmHg 57%
    08:00 +25°C° 0 mm 1 mps 693 mmHg 46%
    09:00 +29°C° 0 mm 2 mps 694 mmHg 35%
    10:00 +31°C° 0 mm 2 mps 694 mmHg 30%
    11:00 +34°C° 0 mm 2 mps 695 mmHg 24%
    12:00 +37°C° 0 mm 2 mps 695 mmHg 19%
    13:00 +37°C° 0 mm 2 mps 694 mmHg 18%
    14:00 +38°C° 0 mm 2 mps 694 mmHg 16%
    15:00 +38°C° 0 mm 3 mps 694 mmHg 14%
    16:00 +38°C° 0 mm 3 mps 694 mmHg 16%
    17:00 +37°C° 0 mm 3 mps 693 mmHg 17%
    18:00 +36°C° 0 mm 3 mps 693 mmHg 18%
    19:00 +32°C° 0 mm 2 mps 693 mmHg 24%
    20:00 +29°C° 0 mm 2 mps 693 mmHg 30%
    21:00 +26°C° 0 mm 2 mps 693 mmHg 36%
    22:00 +26°C° 0 mm 2 mps 693 mmHg 38%
    23:00 +25°C° 0 mm 2 mps 693 mmHg 39%

    19 July, Friday

    Time Temperature Precipitation Wind Pressure Humidity
    00:00 +24°C° 0 mm 2 mps 693 mmHg 40%
    01:00 +23°C° 0 mm 1 mps 693 mmHg 44%
    02:00 +23°C° 0 mm 1 mps 692 mmHg 47%
    03:00 +22°C° 0 mm 1 mps 692 mmHg 50%
    04:00 +22°C° 0 mm 1 mps 692 mmHg 50%
    05:00 +23°C° 0 mm 1 mps 693 mmHg 49%
    06:00 +23°C° 0 mm 1 mps 693 mmHg 48%
    07:00 +27°C° 0 mm 1 mps 694 mmHg 40%
    08:00 +30°C° 0 mm 1 mps 694 mmHg 32%
    09:00 +33°C° 0 mm 1 mps 695 mmHg 24%
    10:00 +36°C° 0 mm 2 mps 695 mmHg 21%
    11:00 +38°C° 0 mm 2 mps 695 mmHg 17%
    12:00 +39°C° 0 mm 3 mps 695 mmHg 14%
    13:00 +40°C° 0 mm 3 mps 695 mmHg 12%
    14:00 +40°C° 0 mm 3 mps 694 mmHg 11%
    15:00 +42°C° 0 mm 3 mps 694 mmHg 9%
    16:00 +41°C° 0 mm 4 mps 693 mmHg 11%
    17:00 +40°C° 0 mm 4 mps 693 mmHg 13%
    18:00 +38°C° 0 mm 4 mps 693 mmHg 15%
    19:00 +35°C° 0 mm 4 mps 693 mmHg 22%
    20:00 +30°C° 0 mm 3 mps 692 mmHg 29%
    21:00 +27°C° 0 mm 2 mps 692 mmHg 36%
    22:00 +26°C° 0 mm 2 mps 692 mmHg 38%
    23:00 +25°C° 0 mm 2 mps 692 mmHg 40%

    20 July, Saturday

    Time Temperature Precipitation Wind Pressure Humidity
    00:00 +24°C° 0 mm 2 mps 692 mmHg 43%
    01:00 +24°C° 0 mm 1 mps 692 mmHg 45%
    02:00 +23°C° 0 mm 1 mps 692 mmHg 47%
    03:00 +22°C° 0 mm 1 mps 691 mmHg 49%
    04:00 +22°C° 0 mm 1 mps 691 mmHg 48%
    05:00 +23°C° 0 mm 1 mps 692 mmHg 46%
    06:00 +23°C° 0 mm 1 mps 692 mmHg 45%
    07:00 +27°C° 0 mm 1 mps 693 mmHg 38%
    08:00 +30°C° 0 mm 1 mps 693 mmHg 30%
    09:00 +34°C° 0 mm 2 mps 694 mmHg 23%
    10:00 +36°C° 0 mm 2 mps 694 mmHg 21%
    11:00 +38°C° 0 mm 3 mps 694 mmHg 19%
    12:00 +40°C° 0 mm 4 mps 695 mmHg 16%
    13:00 +41°C° 0 mm 4 mps 694 mmHg 15%
    14:00 +41°C° 0 mm 5 mps 694 mmHg 14%
    15:00 +42°C° 0 mm 5 mps 694 mmHg 13%
    16:00 +41°C° 0 mm 4 mps 694 mmHg 13%
    17:00 +41°C° 0 mm 4 mps 694 mmHg 14%
    18:00 +40°C° 0 mm 4 mps 694 mmHg 14%
    19:00 +36°C° 0 mm 3 mps 694 mmHg 17%
    20:00 +32°C° 0 mm 2 mps 694 mmHg 21%
    21:00 +28°C° 0 mm 1 mps 694 mmHg 25%
    22:00 +28°C° 0 mm 1 mps 694 mmHg 27%
    23:00 +27°C° 0 mm 1 mps 694 mmHg 29%

    21 July, Sunday

    Time Temperature Precipitation Wind Pressure Humidity
    00:00 +26°C° 0 mm 2 mps 694 mmHg 31%
    01:00 +25°C° 0 mm 1 mps 694 mmHg 35%
    02:00 +24°C° 0 mm 1 mps 693 mmHg 40%
    03:00 +23°C° 0 mm 1 mps 693 mmHg 44%
    04:00 +23°C° 0 mm 1 mps 693 mmHg 44%
    05:00 +24°C° 0 mm 1 mps 694 mmHg 44%
    06:00 +24°C° 0 mm 1 mps 694 mmHg 45%
    07:00 +27°C° 0 mm 1 mps 695 mmHg 37%
    08:00 +31°C° 0 mm 1 mps 696 mmHg 29%
    09:00 +34°C° 0 mm 1 mps 697 mmHg 22%
    10:00 +37°C° 0 mm 2 mps 697 mmHg 19%
    11:00 +39°C° 0 mm 3 mps 697 mmHg 16%
    12:00 +41°C° 0 mm 4 mps 697 mmHg 13%
    13:00 +41°C° 0 mm 4 mps 697 mmHg 13%
    14:00 +42°C° 0 mm 4 mps 697 mmHg 13%
    15:00 +42°C° 0 mm 4 mps 696 mmHg 13%
    16:00 +41°C° 0 mm 4 mps 696 mmHg 13%
    17:00 +40°C° 0 mm 4 mps 696 mmHg 14%
    18:00 +40°C° 0 mm 4 mps 696 mmHg 14%
    19:00 +35°C° 0 mm 3 mps 696 mmHg 22%
    20:00 +31°C° 0 mm 3 mps 696 mmHg 30%
    21:00 +27°C° 0 mm 2 mps 696 mmHg 38%
    22:00 +26°C° 0 mm 2 mps 695 mmHg 41%
    23:00 +25°C° 0 mm 2 mps 695 mmHg 44%
    Show more